Regional Weather Roundup
Issued by NWS

Home | Current Version | Previous Version | Text Only | Print | Product List | Glossary Off
Versions: 1 2 3 4 5 6 7 8 9 10 11 12 13 14 15 16 17 18 19 20 21 22 23 24 25 26 27 28 29 30 31 32 33 34 35 36 37 38 39 40 41 42 43 44 45 46 47 48 49 50

682
ASUS43 KLMK 251402
RWRKY
KENTUCKY REGIONAL WEATHER ROUNDUP
NATIONAL WEATHER SERVICE LOUISVILLE KY
1000 AM EDT THU AUG 25 2016

NOTE "FAIR" INDICATES FEW OR NO CLOUDS BELOW 12,000 FEET
WITH NO SIGNIFICANT WEATHER AND/OR OBSTRUCTIONS TO VISIBILITY.

KYZ001>023-026-027-061>063-070>075-251500-
WESTERN AND SOUTH CENTRAL KENTUCKY

CITY           SKY/WX    TMP DP  RH WIND       PRES   REMARKS
PADUCAH        SUNNY     82  75  79 SW6       30.10F
HENDERSON      SUNNY     82  73  74 SW6       30.09F
OWENSBORO      SUNNY     85  78  79 W8        30.12S HX  96
HOPKINSVILLE   SUNNY     83  76  79 VRB7      30.14S HX  91
BOWLING GREEN  SUNNY     83  74  74 W8        30.15R
GLASGOW        SUNNY     80  72  75 SW5       30.16S
$$

KYZ024-025-028>034-038-045-046-053-251500-
NORTH CENTRAL KENTUCKY

CITY           SKY/WX    TMP DP  RH WIND       PRES   REMARKS
LOUISVILLE/SDF MOSUNNY   85  74  69 SW9       30.10F HX  92
LOUISVILLE/LOU SUNNY     84  73  69 W8        30.11F HX  90
FORT KNOX      SUNNY     83  75  75 SW8       30.11F HX  90
$$

KYZ035>037-039>044-047>052-055>060-089>105-251500-
NORTHEAST KENTUCKY

CITY           SKY/WX    TMP DP  RH WIND       PRES   REMARKS
LEXINGTON      SUNNY     80  73  79 SW9       30.14F
COVINGTON      MOSUNNY   81  76  84 W10G16    30.09S
FRANKFORT      SUNNY     83  74  74 SW12      30.11F
$$

KYZ054-064>069-076>088-106>120-251500-
SOUTHEAST KENTUCKY

CITY           SKY/WX    TMP DP  RH WIND       PRES   REMARKS
JACKSON        SUNNY     78  72  81 VRB3      30.19S
LONDON         MOSUNNY   79  70  74 S8        30.19F
SOMERSET       SUNNY     77  73  88 S3        30.19F
MIDDLESBORO    PTSUNNY   76  72  89 CALM      30.22F
MONTICELLO     PTSUNNY  N/A N/A N/A SE8       30.20S
$$





USA.gov is the U.S. government's official web portal to all federal, state and local government web resources and services.